Theta_e
323 314 317 320 313 316 316 304 300 297 299 292 288 295 299 298 299 300 301 302 303 305 307 312 310 312 311 310 312 312 314 310 310 306 305 319 336 337 338 338 338 338 337 338 340 342 346 346 349 348 347 347 348 348 348 348 348 348 347 346 347 346 345 345 343 341 341 341 340 339 339 339 341 342 341 341 340 340 340 339 339 340 340 342 342 344 345 344 344 343 343 344 345 344 344 344 344
317 315 317 317 318 315 310 300 294 291 290 289 291 290 293 295 299 299 301 301 304 312 313 317 316 316 315 316 317 318 316 319 313 319 325 332 337 337 338 338 338 335 336 338 340 341 344 348 347 347 347 347 348 348 348 348 348 347 346 346 344 344 345 344 343 342 342 342 342 341 342 342 342 342 342 341 341 341 341 340 340 340 340 340 341 341 342 343 343 343 343 343 344 343 343 343 342
315 316 317 311 310 307 305 300 299 286 289 290 289 291 294 297 299 300 301 300 308 315 314 314 314 312 314 312 311 311 312 324 323 325 328 335 329 333 339 339 338 337 337 338 340 341 343 345 344 347 346 346 347 348 348 348 347 347 346 346 345 343 343 343 342 342 340 338 339 339 340 341 341 339 341 340 339 339 339 339 339 340 340 340 340 341 343 343 343 343 342 343 343 343 342 342 341
314 315 316 310 310 304 301 294 291 290 293 288 288 291 292 297 299 300 300 305 314 311 307 312 313 314 314 311 311 319 318 320 326 328 325 330 331 337 338 338 338 337 338 338 340 341 343 344 345 347 346 347 348 347 347 347 346 346 345 345 344 342 342 343 342 340 338 336 340 342 342 342 341 340 340 340 340 340 340 339 340 339 339 339 338 340 342 342 342 342 342 342 342 342 342 342 341
315 315 309 305 305 304 296 292 290 290 292 288 294 293 293 295 301 298 303 303 309 302 305 310 313 315 315 316 315 311 315 324 328 331 329 334 339 339 338 338 337 337 337 338 340 342 344 343 344 346 346 347 347 347 347 346 345 345 345 344 344 342 341 342 341 338 338 339 340 340 341 340 337 337 335 335 335 336 338 338 338 338 338 338 338 338 340 343 343 342 342 342 342 343 343 342 341
311 309 310 310 307 305 298 295 294 293 293 291 294 293 293 295 300 301 305 306 306 301 303 307 312 313 315 317 317 318 323 318 327 330 332 334 338 339 338 338 336 337 337 338 340 342 343 341 345 346 346 347 346 346 346 346 344 344 344 343 343 341 341 341 340 339 339 339 339 340 339 339 337 340 339 339 338 338 338 336 337 338 338 338 338 338 338 341 342 342 342 341 342 342 341 340 340
315 308 305 306 301 301 296 290 289 289 294 292 295 293 296 296 301 305 304 306 304 308 303 312 310 314 313 314 319 323 324 325 329 330 335 337 339 339 338 336 336 335 336 338 340 341 342 341 346 347 347 347 347 346 345 345 344 344 343 343 342 341 340 339 337 339 339 339 339 340 342 342 342 341 340 340 339 339 339 339 340 339 339 338 338 338 339 341 342 341 341 341 341 341 339 339 339
313 311 304 298 294 295 291 288 290 290 297 291 293 295 297 298 301 307 304 302 302 306 311 308 305 310 310 316 315 321 323 324 329 337 338 338 338 337 337 336 335 335 337 337 339 341 343 340 345 345 347 346 346 346 345 345 344 343 342 341 340 339 339 337 338 338 338 339 339 340 341 341 340 340 340 340 340 340 340 339 338 338 338 338 338 339 339 340 341 342 342 341 341 340 339 339 339
306 305 301 300 295 290 288 293 292 290 291 291 292 293 303 300 301 304 301 298 302 303 311 311 307 307 309 314 313 319 324 329 334 336 337 337 337 336 336 336 335 335 336 337 337 340 343 339 343 344 345 346 346 345 345 344 343 343 342 341 339 338 339 338 338 338 340 341 342 341 341 340 338 338 337 337 337 338 337 337 337 337 337 337 337 337 337 339 340 341 341 340 341 339 339 339 339
305 304 300 297 293 294 286 288 293 294 293 293 295 299 298 298 298 300 299 300 302 308 311 306 304 303 309 312 313 321 324 331 335 335 337 337 337 336 335 335 336 336 335 336 337 340 342 342 338 342 344 345 345 345 344 344 343 342 341 340 339 338 338 338 337 338 338 340 340 341 341 339 337 335 335 336 336 337 337 335 334 335 336 336 336 337 336 337 339 340 341 340 339 339 339 338 338
303 298 298 298 288 290 291 287 287 291 292 292 293 294 298 298 297 295 297 301 303 309 306 308 308 307 311 311 315 320 320 332 333 331 335 336 336 335 334 335 336 337 335 336 336 338 339 342 339 339 341 342 344 345 344 343 342 341 339 338 337 337 337 336 335 336 338 340 341 342 341 341 339 338 338 335 335 335 332 334 337 337 337 338 338 338 337 337 338 339 339 339 337 337 337 337 337
301 296 296 289 289 289 288 290 289 291 292 292 301 298 298 298 297 299 299 302 303 303 306 309 307 310 309 312 314 321 328 331 333 335 336 337 335 335 334 334 336 337 337 335 335 335 337 338 342 340 334 336 340 342 342 341 341 340 340 338 337 337 337 342 341 340 339 342 341 341 340 340 340 339 337 336 335 335 335 335 335 336 336 336 336 335 336 336 337 337 337 337 336 337 337 337 336
300 296 293 292 291 292 289 289 291 294 292 292 300 299 297 298 299 298 298 301 301 304 304 307 311 310 306 311 316 318 325 331 334 336 336 336 335 334 334 335 336 337 336 335 334 334 335 335 338 340 336 331 332 335 337 338 339 340 340 340 339 339 339 341 341 341 341 341 341 341 341 340 340 339 339 338 338 337 337 336 336 336 336 337 336 336 337 336 337 336 336 336 336 336 336 336 336
298 296 295 296 290 289 290 292 288 293 291 298 293 294 297 299 298 297 300 302 302 302 306 307 314 312 310 311 311 319 325 332 335 336 336 336 335 333 333 335 336 336 336 335 334 333 332 333 335 338 339 339 340 335 333 336 338 339 339 338 339 340 340 341 340 340 339 339 339 339 339 340 340 339 339 338 338 336 335 335 335 335 335 335 335 335 335 335 335 335 335 336 335 334 334 334 334
304 296 293 290 289 291 289 292 293 289 295 294 297 296 296 298 295 297 302 300 302 304 311 315 315 304 299 306 307 317 325 331 334 336 336 335 334 332 333 334 334 336 336 336 335 333 332 332 333 335 335 336 336 338 340 338 333 335 336 337 338 338 338 337 337 336 336 336 334 333 333 334 334 335 336 336 335 335 334 335 335 335 334 335 334 334 334 334 334 334 335 334 334 333 332 332 332
300 297 294 293 292 291 292 290 286 290 293 293 294 293 298 296 295 300 299 302 303 307 310 314 311 305 308 304 309 318 329 331 334 335 335 333 333 332 331 331 332 334 335 335 335 334 332 331 331 331 333 333 334 335 336 338 331 330 333 334 334 335 334 334 333 331 329 328 328 329 328 331 329 330 326 331 330 331 331 332 334 335 335 335 334 334 334 334 334 334 335 333 332 330 329 327 327
301 299 295 289 292 290 293 291 290 295 292 292 291 296 301 297 296 297 301 306 303 307 311 311 311 312 313 304 316 318 330 331 332 334 333 331 330 329 329 329 329 331 333 334 334 334 333 332 331 331 330 330 331 332 333 333 332 330 330 329 329 330 330 330 328 323 323 323 325 323 325 330 330 329 329 329 324 328 322 324 333 334 334 334 334 334 334 334 334 334 333 332 330 327 322 320 320
298 293 290 292 291 291 293 293 291 295 295 296 293 293 300 296 296 300 306 306 306 308 310 309 310 312 313 313 316 323 330 331 332 331 330 329 329 326 325 326 326 325 329 330 333 334 332 331 331 330 329 329 329 329 330 331 331 330 334 334 333 329 325 324 327 329 326 327 318 324 326 326 326 326 326 324 324 325 325 321 324 332 333 332 333 333 333 333 332 332 330 329 327 323 318 323 322
295 291 293 294 292 294 295 292 293 293 297 294 293 291 298 300 296 298 301 298 306 307 308 308 312 313 316 318 323 326 329 329 331 331 329 327 327 326 325 325 325 325 326 328 330 333 333 332 331 330 330 329 328 329 329 330 330 331 330 329 329 325 327 326 327 326 325 323 323 323 323 324 324 324 324 322 320 316 321 319 322 326 327 326 327 328 327 327 328 327 326 324 322 319 321 321 322
297 296 293 291 296 296 294 293 296 293 294 294 294 294 293 297 297 299 300 298 303 303 303 305 308 310 314 318 322 325 328 329 330 330 329 328 328 327 326 325 324 325 325 327 328 331 333 332 331 331 329 329 329 328 328 329 329 330 329 327 327 325 325 325 324 325 325 323 323 323 322 320 321 322 321 321 319 321 320 318 318 319 321 320 319 320 317 318 320 320 317 318 317 318 323 320 321
298 296 293 298 296 295 297 292 293 291 293 294 293 290 293 294 296 300 297 300 301 303 304 306 307 310 314 318 321 323 327 327 329 330 329 328 329 329 328 327 326 326 326 327 328 328 330 331 332 331 330 329 329 328 327 328 328 328 328 327 326 326 324 323 323 325 324 323 322 323 320 319 321 321 321 319 320 319 320 319 321 321 320 323 318 322 318 319 318 320 318 318 318 320 323 322 321
299 296 298 297 292 295 296 292 291 291 291 293 290 295 294 295 296 297 300 297 297 301 305 306 307 312 316 318 320 323 326 326 328 328 328 328 327 328 329 330 330 329 328 326 326 327 329 329 332 331 330 329 329 329 328 328 327 327 327 327 326 325 325 324 322 323 322 321 322 321 320 321 320 320 319 318 320 320 321 321 318 318 318 322 319 320 319 318 319 318 317 320 318 317 319 319 319
293 291 293 294 294 293 294 292 292 290 293 293 292 294 294 296 294 295 300 300 298 299 300 305 308 314 318 321 321 322 324 325 327 328 328 327 328 328 328 329 329 329 328 326 328 328 328 329 331 332 330 329 329 329 329 328 328 328 328 326 326 325 324 324 324 323 323 323 321 321 324 321 320 320 320 318 321 315 320 319 320 315 318 321 320 320 319 318 319 319 319 319 319 321 322 321 321
294 292 293 294 293 293 293 293 290 289 292 293 292 293 295 293 294 294 298 300 295 295 295 294 307 316 320 319 321 322 324 325 326 328 329 328 328 328 329 329 330 331 329 328 328 328 328 328 330 330 329 329 329 329 328 327 328 328 328 325 326 325 324 325 324 325 323 323 322 323 323 323 323 323 320 320 320 316 319 318 316 318 317 318 320 319 320 321 321 321 322 323 324 324 323 322 321
297 294 294 294 293 293 293 291 289 288 290 290 292 295 293 293 294 294 297 301 299 302 308 305 313 316 318 319 320 322 323 325 326 327 329 329 329 329 330 330 331 331 329 329 328 329 329 329 329 328 329 329 329 329 327 327 327 328 327 327 326 323 324 325 325 323 324 323 323 323 324 325 322 323 322 321 318 321 318 317 318 319 318 320 319 319 319 322 323 323 324 324 323 323 322 322 321
294 296 295 294 294 294 293 291 289 289 290 290 294 292 290 290 293 293 296 296 298 308 310 312 313 315 316 318 320 321 322 323 325 325 326 328 329 328 328 330 330 330 330 330 330 329 330 330 329 327 328 329 329 328 327 326 326 326 327 327 327 325 325 324 323 324 324 323 323 322 324 326 326 326 324 320 321 321 318 317 319 320 321 320 319 321 319 321 324 324 323 323 322 322 321 322 320
295 295 295 294 294 292 292 293 290 289 291 290 294 291 291 292 293 294 292 296 305 309 309 310 313 314 316 317 319 321 322 323 324 326 326 326 327 327 327 329 330 330 332 331 331 330 330 330 329 328 328 328 329 327 326 325 325 325 325 326 326 326 326 324 323 324 324 323 324 322 323 324 325 324 324 322 320 322 321 321 322 319 321 323 320 321 320 322 322 323 323 323 323 322 322 321 320
298 296 296 298 293 293 291 289 289 292 294 288 293 291 290 290 292 294 294 299 305 307 310 311 310 313 315 316 318 319 321 323 325 325 323 323 324 326 326 327 329 331 331 331 332 333 331 330 329 329 328 328 327 327 326 325 325 325 325 325 325 326 325 324 324 324 323 324 323 324 323 324 323 324 323 322 323 322 323 322 321 321 324 323 321 322 322 321 322 322 320 319 319 319 321 321 321
297 295 299 295 295 296 293 293 291 291 293 290 291 293 290 291 292 294 291 299 304 307 308 310 310 311 313 315 317 318 319 321 323 323 324 325 326 327 326 329 330 330 332 333 333 333 332 331 330 330 329 327 327 327 326 325 325 325 325 324 324 324 324 324 324 325 325 325 323 324 324 324 323 324 323 323 321 323 322 322 322 321 322 322 321 321 321 319 319 320 321 318 318 319 319 321 321
297 293 292 297 295 294 293 291 290 291 293 289 291 289 288 291 295 291 291 303 303 305 306 310 311 309 311 313 315 317 318 318 320 323 325 325 326 327 327 329 330 330 330 332 332 332 333 333 332 331 329 327 327 327 327 326 325 325 325 325 325 325 325 325 325 325 325 325 325 324 324 323 323 323 323 321 322 322 321 321 322 322 321 320 319 319 320 320 321 321 322 320 319 319 320 320 319
300 297 292 292 290 289 290 290 291 292 291 289 292 289 290 291 293 292 295 303 303 302 305 309 310 309 310 312 314 316 317 319 320 321 323 325 326 326 327 328 329 330 330 330 330 332 332 332 332 331 329 329 327 328 327 327 326 326 326 326 325 326 325 326 326 325 324 325 325 325 324 324 323 323 322 323 322 322 322 322 320 322 322 321 321 320 321 321 321 321 321 322 321 320 320 320 319
295 298 293 287 289 289 292 293 290 292 292 290 293 288 291 293 294 289 288 301 301 300 303 306 309 310 309 311 313 315 317 318 318 319 320 321 322 324 325 326 328 329 329 329 330 331 331 332 332 332 330 329 328 328 328 328 328 327 327 324 327 326 326 326 326 326 325 325 325 325 324 324 323 322 322 322 323 322 323 323 325 324 323 324 323 322 321 323 322 322 321 321 321 322 320 321 319
292 294 289 287 284 286 288 292 288 291 291 292 291 289 286 291 289 286 288 302 301 299 300 304 307 308 309 310 312 314 314 316 316 318 319 320 321 322 323 324 325 327 329 328 328 328 329 331 330 331 330 330 329 329 329 328 328 327 327 326 327 326 326 327 327 327 326 325 325 326 325 324 324 323 323 323 325 323 323 325 327 326 324 326 326 324 323 323 323 322 322 320 320 320 319 319 319
291 286 290 287 286 286 286 290 290 290 291 290 290 289 289 290 288 286 287 300 300 300 299 302 305 307 309 310 311 312 313 315 316 318 319 319 321 321 322 321 323 324 326 327 328 328 328 329 329 330 332 332 331 330 329 328 328 328 328 327 325 326 326 327 327 326 326 325 325 326 326 325 324 324 324 324 326 325 326 327 328 327 326 325 324 323 324 321 321 321 322 319 320 319 320 320 320
291 287 287 289 285 286 288 287 290 291 289 289 289 288 291 293 294 289 288 295 300 301 300 301 304 306 308 309 310 312 313 313 316 318 320 320 319 320 321 321 322 322 324 325 326 327 328 328 328 328 330 331 331 330 329 329 329 329 328 326 325 326 326 327 326 326 327 326 326 326 326 325 325 326 326 326 326 326 326 326 327 327 328 327 323 321 322 322 320 319 320 320 317 318 319 319 320
293 291 290 287 286 287 285 289 289 290 288 288 287 289 291 293 294 293 288 292 298 300 299 298 298 302 306 307 309 310 312 313 316 317 318 319 319 320 320 321 321 322 323 323 323 325 326 326 327 327 328 330 330 330 329 327 327 325 324 323 324 324 326 325 325 327 327 328 327 326 326 326 326 328 328 327 327 327 327 327 327 328 325 325 324 323 322 323 323 320 321 320 321 319 314 316 318
291 289 288 287 287 287 289 289 290 289 289 288 288 289 290 292 293 293 288 288 291 292 294 298 299 298 301 305 307 309 310 312 315 314 315 316 318 319 320 320 320 321 321 322 322 323 324 325 324 325 327 329 329 328 327 326 324 324 325 324 324 325 325 327 326 327 328 329 329 328 327 327 327 328 327 328 327 324 327 329 328 327 324 324 324 325 324 323 320 320 318 316 318 318 319 320 320
290 289 288 288 287 285 289 290 290 290 290 286 285 286 289 291 293 292 286 288 290 291 292 293 296 297 298 301 305 306 309 310 308 308 309 312 315 316 318 319 317 319 319 320 321 322 323 324 324 326 327 327 329 330 329 328 328 328 326 325 325 326 325 325 325 326 328 329 329 329 329 329 329 327 326 327 327 327 326 326 327 327 324 322 323 322 319 316 317 317 317 319 317 318 319 318 318
291 290 287 286 287 287 289 289 289 289 289 288 286 287 290 291 293 292 289 291 291 291 293 294 294 295 296 297 300 303 304 306 307 307 308 309 311 313 315 318 319 321 322 320 322 322 322 322 324 325 326 326 328 330 330 328 329 329 329 328 328 326 327 329 329 329 329 330 330 329 329 329 329 329 329 327 326 326 327 327 327 326 322 323 322 322 321 321 320 319 318 319 319 316 317 316 318
289 287 287 286 286 286 284 288 288 288 288 286 285 285 288 291 291 291 290 291 291 291 291 292 293 295 295 296 297 299 301 303 304 304 304 305 307 310 312 316 318 320 321 320 320 321 322 321 323 323 324 326 327 328 327 330 330 329 329 328 328 327 324 324 327 327 329 329 329 329 330 330 330 331 330 328 327 328 327 327 327 323 321 323 324 323 322 322 320 319 318 318 319 317 317 317 314
288 289 288 286 287 286 286 287 288 288 286 286 286 287 289 291 292 292 291 289 289 289 289 289 290 292 295 295 294 295 298 300 301 302 302 301 303 306 310 314 317 318 319 321 320 321 322 322 323 323 324 325 326 326 326 327 325 324 322 321 322 322 321 323 324 324 326 327 328 327 329 328 329 330 330 329 327 327 326 327 326 325 324 323 323 322 321 321 321 320 319 318 318 318 315 316 316
287 287 290 289 288 287 287 288 288 286 285 288 287 282 284 287 286 289 292 288 288 288 290 290 291 291 291 292 294 294 294 296 298 300 301 301 302 304 307 310 313 316 318 320 322 322 322 323 323 323 323 324 325 326 326 326 325 325 323 323 321 322 322 320 322 323 322 324 327 329 328 328 328 328 328 328 327 325 326 326 325 325 324 322 322 321 320 318 318 319 319 319 318 318 317 313 312
288 289 290 289 289 288 288 286 288 282 281 287 285 284 283 285 288 287 288 287 289 289 287 290 291 291 290 292 293 294 294 294 293 294 295 296 299 301 304 307 311 314 317 320 320 321 322 323 322 322 323 323 324 325 325 325 326 326 325 326 326 325 324 324 326 327 327 327 327 326 326 325 327 327 325 326 326 324 325 324 323 322 322 321 319 320 318 317 316 316 315 315 315 315 314 311 310
288 290 290 291 289 288 287 288 287 284 286 287 284 285 281 283 290 289 285 286 287 288 288 289 290 290 290 291 293 294 294 294 295 295 295 295 297 299 301 305 309 312 315 317 318 319 320 321 322 322 323 322 324 324 324 325 326 326 326 326 326 327 327 326 325 326 327 325 324 323 321 320 322 324 323 324 325 324 323 322 322 321 320 319 318 319 317 315 314 313 313 314 313 312 311 312 310
289 287 290 290 292 290 289 288 285 284 284 281 284 284 282 280 285 283 284 288 287 288 288 289 291 291 291 292 293 293 294 295 295 295 295 295 295 297 300 302 307 310 312 314 316 318 320 321 320 321 322 322 322 323 323 324 325 326 326 326 325 326 327 326 322 320 322 322 323 318 319 318 318 319 322 322 321 320 319 320 319 318 318 317 317 316 315 314 314 312 312 314 314 313 313 311 311
289 288 291 290 289 288 288 285 285 284 282 280 283 283 280 283 282 285 282 284 287 289 288 290 291 292 293 292 293 293 293 293 293 294 295 295 295 296 298 300 302 307 309 311 313 315 316 318 318 319 320 321 321 322 322 324 325 324 325 325 325 324 323 318 318 316 319 320 322 319 317 316 316 315 316 316 316 316 316 315 316 316 315 314 312 313 311 310 308 307 306 307 308 308 308 310 308
292 292 291 290 288 285 284 284 283 282 276 282 285 282 283 280 284 288 288 287 287 289 289 288 288 288 289 291 293 295 294 293 292 292 292 293 293 294 296 298 301 302 305 307 310 312 314 316 317 317 319 320 320 321 322 323 324 324 325 325 324 323 321 318 316 316 317 318 319 316 315 314 315 314 311 310 310 310 310 310 310 309 309 308 308 308 307 307 305 304 303 303 303 304 303 302 301
292 288 288 289 286 287 284 282 284 279 279 281 278 280 281 279 282 286 287 285 285 293 291 293 294 294 292 290 290 291 290 290 291 291 292 293 293 294 294 296 298 301 302 304 308 309 311 314 316 316 317 318 318 320 321 322 323 324 325 324 324 324 321 319 318 317 317 317 317 314 313 311 310 311 310 309 308 308 307 306 305 305 305 305 306 306 305 304 303 303 303 302 301 300 300 299 298
291 290 289 284 280 281 278 279 277 278 278 278 277 278 281 281 285 285 284 286 289 286 290 294 295 295 294 290 288 287 287 288 289 291 292 293 294 294 295 296 297 299 302 304 306 308 310 312 314 316 316 316 317 319 320 321 322 323 323 323 323 323 321 321 321 320 319 319 317 313 310 310 308 308 308 308 307 306 306 305 305 304 303 303 303 304 303 303 302 301 300 299 298 298 297 297 296
289 288 286 283 277 276 276 277 273 275 278 279 280 279 280 285 282 290 292 293 290 289 289 290 290 291 292 290 288 287 288 289 290 291 292 293 294 295 296 296 297 299 301 303 304 305 307 310 312 315 316 315 317 318 319 320 321 322 323 323 323 321 320 321 322 321 319 320 318 314 312 312 310 310 307 307 305 303 303 302 301 301 301 301 302 302 302 302 300 298 297 296 296 295 295 295 294
288 290 290 287 284 278 276 277 277 278 280 277 278 279 278 281 286 285 291 291 288 286 286 287 287 288 289 287 287 288 290 291 291 292 293 294 295 296 297 297 297 298 300 301 301 302 304 307 310 312 315 314 315 317 318 320 320 322 322 323 323 321 321 320 322 322 320 319 317 315 314 313 312 310 308 304 302 301 300 300 300 300 300 300 300 300 299 299 297 295 294 294 294 293 292 292 291
288 288 289 285 285 284 279 277 278 275 274 274 275 281 281 284 284 286 285 285 286 287 286 285 287 288 288 289 291 292 293 293 293 293 293 294 295 294 295 296 297 296 296 296 298 300 301 305 308 311 314 314 314 315 317 319 320 321 321 321 322 320 319 320 320 319 320 319 317 316 314 313 311 307 303 300 300 300 298 298 298 298 298 299 298 298 297 297 296 295 293 293 291 291 291 290 289
288 287 284 287 288 285 279 280 279 276 273 275 276 278 283 280 288 292 287 284 288 287 288 287 288 290 290 291 293 294 294 294 293 293 294 294 293 292 294 295 294 296 297 298 298 299 301 303 305 308 311 312 313 313 316 318 319 319 319 321 321 320 319 319 319 318 318 317 316 315 312 309 305 302 300 299 298 298 297 297 296 296 296 296 295 296 295 294 294 293 292 291 289 289 289 288 289
288 283 288 288 288 288 285 280 276 274 274 275 273 280 280 280 282 284 286 286 288 286 288 290 290 289 290 292 294 294 294 293 292 292 293 293 293 293 293 293 295 296 299 299 299 300 301 304 305 307 309 309 310 312 314 316 317 317 318 318 319 320 320 319 319 317 315 313 310 309 307 303 302 300 299 297 297 295 295 294 295 294 293 294 294 293 293 291 291 291 289 289 288 289 288 288 288
290 288 293 289 281 281 282 278 273 273 271 272 271 276 276 280 284 281 286 287 290 291 290 288 290 290 290 292 292 293 291 291 292 292 292 292 292 293 293 292 294 296 299 300 300 301 302 304 306 307 308 309 309 311 312 314 316 316 317 317 318 318 318 318 316 314 312 310 307 305 304 303 299 297 296 295 295 293 292 292 292 291 291 291 291 291 290 290 290 289 288 288 287 289 288 287 287
289 290 290 288 285 285 281 281 276 277 274 271 272 272 279 280 280 281 285 284 289 289 287 288 290 291 290 289 291 292 292 292 292 292 292 292 291 291 291 292 295 296 298 300 302 302 302 304 305 306 307 308 308 308 309 311 313 314 315 315 315 316 316 315 312 311 310 308 305 303 301 298 297 296 296 295 293 292 291 291 290 290 290 289 289 289 289 289 289 289 288 288 288 288 287 287 286
284 286 285 287 285 286 285 281 280 277 270 267 269 271 275 279 282 285 289 286 286 288 291 291 290 289 287 288 289 290 291 292 292 291 291 291 291 290 290 291 293 295 299 302 303 303 303 304 305 306 306 307 307 307 308 309 310 311 310 312 311 311 310 310 309 309 308 306 303 301 299 298 295 294 293 292 292 291 291 290 290 290 289 289 288 288 288 288 288 288 288 288 287 287 287 286 286
287 287 285 287 285 280 281 280 281 276 276 272 266 276 276 282 281 288 290 292 290 287 287 289 288 287 288 288 288 289 290 291 291 290 290 290 290 290 289 288 288 291 297 301 302 303 303 304 305 305 306 306 306 306 307 308 308 309 308 309 307 307 307 306 306 305 303 301 299 298 295 293 294 292 292 292 291 290 290 289 289 288 288 288 287 287 287 288 288 287 287 287 287 287 286 286 286
Wind_Speed
3 2 0 2 3 1 1 5 1 3 2 0 2 1 1 0 1 1 2 2 2 1 2 2 3 5 3 4 6 5 1 5 4 7 4 1 2 6 8 9 8 7 6 2 0 1 3 7 10 10 9 8 9 10 10 11 11 12 11 11 12 12 12 13 13 13 12 13 13 13 14 14 14 14 15 15 15 14 15 15 14 13 15 16 16 17 17 17 18 17 16 16 17 18 17 17 17
3 3 2 1 0 3 2 2 5 3 6 4 2 1 2 2 2 5 6 3 1 2 3 5 7 7 8 7 8 5 4 4 4 2 1 1 5 4 6 8 9 8 5 2 2 3 4 7 8 9 8 9 9 10 11 11 10 11 11 11 11 10 13 13 12 12 13 12 14 14 14 14 15 15 15 14 15 15 14 15 14 13 14 15 15 16 16 17 17 16 15 15 16 17 16 16 16
3 3 2 2 4 4 2 4 2 1 3 1 3 6 2 3 5 5 6 4 6 6 4 5 5 3 1 1 2 1 2 1 2 3 2 6 8 5 6 7 7 7 5 3 3 4 4 5 7 8 9 9 10 11 11 11 10 10 11 12 11 10 11 13 14 14 13 12 13 13 16 17 17 14 14 13 14 14 15 14 14 13 14 15 15 15 17 17 16 16 15 14 14 15 15 15 15
6 4 2 3 1 3 1 4 4 4 1 2 3 3 4 5 7 6 3 5 7 4 0 2 2 2 1 1 2 5 4 5 3 4 5 7 3 6 7 8 7 5 4 3 3 4 4 5 7 7 9 10 11 11 11 10 11 10 11 12 12 10 10 14 14 13 13 10 14 15 14 15 16 14 15 14 14 14 15 15 14 12 13 13 15 15 16 15 16 15 15 14 14 14 16 15 15
4 2 2 4 2 1 3 1 4 2 1 5 0 3 6 6 5 5 4 5 4 2 2 2 4 2 0 3 2 2 4 2 3 2 3 3 4 7 8 8 7 5 4 3 4 4 4 7 7 8 10 11 12 11 10 10 11 11 11 11 11 10 10 13 13 12 13 13 13 14 14 14 13 13 13 13 13 13 13 14 14 13 12 13 12 13 15 15 15 16 16 15 15 16 15 15 15
6 3 4 1 1 1 4 2 3 1 3 6 1 1 6 7 7 7 6 5 3 3 1 2 2 5 1 2 1 2 3 5 5 3 6 6 10 9 8 7 6 5 3 3 4 4 4 5 6 7 10 11 12 12 10 11 12 10 10 11 11 10 10 11 13 11 13 13 12 12 13 13 12 14 13 13 13 13 14 13 13 14 13 11 11 12 13 14 15 15 15 15 15 14 14 14 13
1 3 5 3 2 3 3 2 2 3 2 6 1 2 4 5 6 9 5 2 0 2 1 1 3 5 5 2 1 1 1 1 7 4 2 9 10 8 8 7 7 6 4 3 3 3 4 6 8 8 8 10 12 11 11 11 12 11 11 11 11 10 11 12 10 12 14 13 12 14 14 14 14 14 14 14 14 14 14 14 14 14 13 11 12 11 12 14 14 14 15 15 14 14 13 12 12
2 1 2 1 1 3 1 2 2 5 0 6 1 3 3 6 6 6 8 3 2 2 0 1 1 2 1 1 3 1 3 1 0 7 10 10 10 8 9 7 7 6 5 3 2 2 3 6 7 7 9 11 12 12 11 12 12 11 11 11 10 10 11 10 10 12 13 11 12 13 13 14 14 14 13 13 13 13 14 13 13 13 13 12 12 11 11 13 14 14 15 15 15 14 12 11 11
5 7 1 3 1 4 2 0 2 3 6 3 6 6 4 5 4 7 7 2 1 0 4 3 0 1 3 1 1 2 2 2 5 11 11 11 10 9 7 8 8 7 6 3 2 2 3 6 7 8 8 10 12 11 13 12 12 11 11 11 10 10 10 11 11 11 12 12 12 13 13 12 12 12 12 12 13 13 13 13 13 13 12 12 11 12 11 12 13 14 15 15 14 14 12 12 11
2 2 1 2 3 2 3 2 0 2 2 3 4 1 4 6 5 3 7 2 2 5 4 2 1 1 3 4 1 2 2 2 11 12 11 12 10 9 8 9 8 8 6 5 3 3 4 6 8 8 9 10 10 9 12 12 12 11 10 9 9 10 11 10 10 12 11 11 10 12 13 12 11 11 11 11 11 12 11 11 10 12 12 11 11 10 10 11 11 13 14 14 13 13 13 12 11
0 5 3 2 2 0 3 2 4 4 2 5 6 7 6 6 6 4 1 2 2 5 2 1 2 4 3 1 2 2 4 4 12 12 12 11 10 8 8 8 8 7 7 6 4 4 4 4 8 9 9 9 9 8 8 10 11 12 11 9 10 11 12 10 8 10 12 11 11 10 12 13 12 13 13 11 10 10 9 11 12 11 12 12 12 12 11 11 11 12 13 13 12 12 12 12 11
0 1 2 3 2 4 3 1 3 7 8 2 0 1 4 9 4 4 2 4 3 0 5 6 2 8 4 1 3 3 1 8 9 11 11 11 8 8 9 7 9 8 6 6 6 5 5 4 5 7 9 10 10 9 8 9 11 11 10 11 11 11 12 11 10 9 12 14 12 12 12 13 13 13 13 12 11 9 9 11 10 10 10 10 10 10 11 10 11 11 12 12 12 11 11 11 11
3 2 5 4 1 0 1 0 2 3 5 3 3 1 5 7 5 5 5 2 4 4 3 9 4 2 4 3 2 4 5 9 8 10 11 10 8 9 8 9 9 9 6 6 7 7 6 5 4 5 7 10 9 8 9 10 10 10 10 10 10 9 10 11 11 12 13 14 14 14 13 11 12 13 13 13 12 11 11 10 10 10 11 11 11 11 11 11 10 10 10 10 11 11 11 11 10
4 5 5 2 2 2 2 1 1 1 2 1 3 2 5 3 3 7 8 4 6 6 2 3 5 4 3 2 3 3 7 8 8 10 9 9 8 8 9 9 9 8 6 7 7 7 6 5 5 6 6 6 6 7 8 10 10 10 10 9 9 10 11 10 10 11 12 12 12 11 11 11 12 13 13 12 12 11 10 10 9 9 9 10 10 10 10 10 10 10 10 10 11 11 11 11 11
0 2 6 5 1 1 2 1 1 2 1 1 2 7 3 2 4 6 7 6 8 3 1 1 5 2 4 8 3 7 9 11 9 10 9 9 10 9 9 9 10 7 7 7 6 6 7 6 5 5 5 5 5 5 4 7 10 9 9 10 10 10 9 10 9 9 10 9 9 11 11 11 10 11 11 10 9 8 8 7 8 8 8 9 9 10 10 10 9 9 10 10 10 11 11 10 10
4 5 4 2 0 1 1 1 3 2 3 4 1 2 4 1 2 5 5 2 1 0 2 3 0 1 1 5 2 5 11 11 9 9 9 10 9 9 8 9 8 8 7 8 7 5 6 6 5 5 4 5 5 5 5 5 7 9 9 9 10 9 9 8 8 9 9 10 10 10 9 9 8 8 10 8 8 7 6 6 6 7 8 8 9 9 9 8 8 9 10 10 10 9 9 9 9
2 3 1 3 1 2 2 2 5 1 2 3 3 3 7 2 1 1 1 1 3 2 0 1 2 1 5 5 1 4 13 9 9 11 10 8 8 7 6 6 7 8 7 8 8 6 7 7 6 6 5 6 6 6 5 5 6 8 7 9 9 9 9 9 8 9 8 8 8 8 7 5 5 5 6 5 7 6 7 7 7 7 8 7 8 8 8 8 9 9 9 9 9 9 8 8 9
1 2 4 1 1 3 5 5 9 1 1 1 3 5 4 2 1 1 1 5 3 1 2 3 1 4 3 4 2 6 13 12 11 13 10 8 7 7 7 7 8 8 8 8 9 6 6 7 8 7 6 6 6 6 5 5 5 5 6 5 5 6 6 6 5 5 4 4 6 5 4 4 4 4 4 5 4 4 6 7 6 7 9 9 9 9 9 9 9 9 9 9 8 8 8 5 5
6 2 2 3 5 3 4 3 5 1 3 2 2 3 4 5 8 3 2 1 1 1 3 1 1 2 4 2 7 10 13 11 12 11 14 12 9 9 8 8 8 8 8 8 8 10 7 7 7 8 8 7 6 6 5 5 5 5 5 4 4 4 5 6 4 4 3 4 4 4 4 4 4 4 4 4 4 6 5 7 7 9 9 9 8 7 7 7 8 8 8 8 7 7 5 4 3
1 1 1 1 4 5 5 2 2 4 0 2 2 0 3 1 4 2 3 2 1 6 6 2 5 7 5 5 8 10 13 12 9 14 15 14 11 10 9 9 8 9 9 9 8 8 10 7 8 7 9 8 7 6 5 5 4 4 4 4 4 3 3 3 4 3 3 3 3 3 3 3 3 3 5 6 4 3 3 5 7 7 7 7 6 3 4 6 6 7 7 6 4 3 3 3 3
0 1 1 0 0 3 1 2 7 5 0 1 1 1 2 2 4 3 4 4 5 8 8 11 13 11 10 10 12 10 14 13 11 12 15 15 13 10 9 9 9 8 7 7 6 8 10 11 7 7 8 8 7 5 6 5 5 4 3 4 4 3 3 3 3 2 3 3 3 3 3 3 3 2 2 2 2 2 2 2 2 3 3 3 5 2 2 3 3 3 4 5 3 3 3 3 3
0 1 1 1 1 1 4 3 3 3 2 1 1 3 6 1 1 3 10 8 8 9 8 9 5 9 14 15 13 11 14 15 12 12 15 16 16 12 9 7 6 6 6 7 8 8 10 9 9 7 7 7 7 6 6 5 5 5 4 4 4 3 3 3 3 2 2 2 2 2 3 3 2 2 1 2 2 2 2 2 1 1 2 2 2 2 1 2 2 2 3 3 2 1 2 1 1
2 2 3 1 2 1 3 4 2 1 2 1 1 4 3 5 2 3 7 13 3 3 2 7 8 10 9 11 13 12 14 16 14 13 15 17 15 13 11 10 9 8 7 7 7 7 8 9 8 8 8 7 7 6 6 5 5 4 4 4 4 4 3 4 3 3 2 2 2 2 3 2 2 1 1 1 1 1 1 0 0 0 1 1 1 1 1 1 2 2 2 2 1 1 2 1 1
2 3 2 4 1 5 4 4 2 2 4 5 2 1 3 3 6 1 6 7 3 2 5 6 5 10 12 14 15 16 16 17 16 14 14 17 16 15 12 11 9 7 7 8 8 7 7 9 9 9 8 7 7 7 6 5 5 5 5 4 4 4 4 4 3 3 3 3 3 2 2 2 2 2 1 1 1 0 0 0 0 0 0 0 0 0 1 1 1 1 1 2 2 2 2 3 2
3 3 3 5 3 4 6 5 5 4 8 2 1 2 5 8 4 2 9 10 5 4 2 4 8 10 10 13 15 12 13 12 13 12 9 9 12 11 9 7 8 7 9 9 8 7 9 8 9 9 9 9 7 7 7 5 5 5 5 5 5 4 4 4 3 3 3 3 3 3 3 2 1 1 1 2 1 2 1 1 1 1 0 0 0 1 1 2 1 1 1 2 2 2 2 2 2
3 1 4 5 5 6 6 6 3 4 3 2 1 6 4 2 0 6 10 4 6 4 5 6 7 9 11 13 15 13 14 16 13 12 11 9 9 12 11 9 8 10 10 9 8 8 7 8 9 10 8 9 8 7 6 6 6 6 6 6 5 4 5 3 3 3 3 3 3 3 3 2 3 2 2 2 2 2 2 1 1 1 0 0 0 1 0 0 1 1 1 2 2 2 2 1 2
3 2 3 6 8 5 2 1 3 1 3 3 4 2 1 1 1 8 1 1 2 6 5 4 8 10 11 10 11 11 14 15 16 12 9 9 9 12 12 9 10 10 8 9 8 7 7 8 8 9 9 7 8 7 6 6 6 6 6 6 6 5 5 4 3 3 3 3 4 4 4 3 2 2 2 2 2 1 1 1 1 0 1 1 1 2 1 2 1 2 2 2 2 2 3 2 2
3 3 7 6 3 4 5 3 6 0 3 6 5 2 1 2 1 9 1 1 1 7 5 7 5 8 9 9 10 9 10 10 10 11 15 14 11 11 12 11 11 9 9 10 7 6 8 10 9 8 9 8 8 8 7 7 7 6 6 5 6 6 6 5 4 4 4 4 4 4 4 4 3 2 3 2 2 2 2 2 1 1 2 1 2 2 2 2 2 2 2 2 2 2 3 3 2
1 2 5 8 8 9 3 5 3 5 3 6 5 1 2 1 9 2 2 0 2 5 5 5 7 6 7 6 7 8 9 9 10 11 14 12 10 9 12 10 10 10 7 8 8 7 8 10 10 10 10 10 9 9 7 7 6 6 6 7 7 7 6 6 5 5 5 4 4 4 4 4 3 4 3 3 3 2 2 2 2 2 2 1 1 2 2 1 1 2 2 2 2 2 2 3 2
1 2 2 8 7 9 4 2 1 4 1 7 2 5 7 9 14 1 0 4 5 5 5 7 6 5 6 6 7 7 6 8 11 12 10 11 12 11 12 10 10 9 8 7 7 8 7 5 6 7 10 11 11 9 7 7 8 7 7 7 7 7 6 6 6 4 3 4 4 5 4 4 3 3 3 3 2 2 1 2 2 2 2 2 1 1 2 2 2 2 2 1 2 1 2 3 3
3 1 1 2 3 5 2 1 1 4 1 5 1 4 8 6 9 4 3 3 8 8 7 7 6 5 6 7 7 8 9 10 11 10 9 9 9 9 10 9 10 9 7 7 9 10 9 8 7 8 9 10 9 9 10 8 8 8 7 7 7 7 6 5 4 3 4 4 4 4 4 4 4 4 3 4 3 3 3 3 3 4 3 3 3 3 2 1 1 3 1 2 2 1 2 2 2
2 1 6 2 4 4 11 2 4 4 1 1 2 3 9 10 9 2 2 4 3 6 6 7 7 7 7 7 8 8 9 8 7 7 9 9 9 9 11 12 10 10 10 9 9 9 9 9 8 9 9 11 10 10 10 9 8 8 6 6 6 6 6 5 4 4 4 3 4 4 4 4 4 3 4 3 3 3 2 3 4 3 3 2 2 1 2 3 2 2 1 1 2 3 2 3 1
5 4 2 1 2 4 8 1 2 2 2 1 4 6 4 4 3 3 1 4 4 6 7 7 8 9 7 8 8 8 7 7 8 9 10 10 9 9 10 11 12 12 12 11 10 9 10 10 9 10 10 10 11 10 10 9 8 8 8 7 7 6 6 5 4 4 3 4 4 4 5 4 4 4 4 4 3 3 3 5 5 3 2 2 2 1 2 2 1 2 1 1 1 3 2 4 3
1 4 3 1 2 4 3 8 0 1 1 4 3 4 7 5 4 3 1 4 2 6 7 5 6 7 8 7 7 8 8 8 11 12 13 11 9 10 8 9 10 10 11 12 12 12 12 11 10 10 10 10 9 9 10 9 8 8 6 6 6 6 7 5 4 3 4 4 3 4 5 5 5 5 4 4 3 3 4 4 3 4 3 2 1 2 2 0 1 2 2 0 1 2 2 3 4
6 3 3 5 2 6 8 4 2 1 2 3 3 7 11 11 10 4 1 2 5 7 5 6 7 7 7 6 7 8 8 9 13 12 12 11 9 9 8 9 9 10 9 11 11 11 10 10 9 9 10 10 9 9 9 8 8 7 5 5 4 5 5 4 4 4 4 4 4 5 5 4 5 6 5 5 5 5 4 4 3 4 3 4 4 3 3 1 1 1 1 2 2 2 3 2 3
9 9 7 2 5 4 1 4 4 0 4 4 4 7 11 13 13 7 1 4 7 7 4 6 7 6 6 7 7 8 9 12 12 7 7 8 8 8 8 8 8 9 9 9 11 10 10 9 9 8 9 9 8 8 8 7 6 6 6 4 4 5 5 4 5 5 4 4 5 5 5 5 6 6 6 6 6 6 5 5 5 4 2 2 2 3 4 1 1 1 2 3 3 1 3 3 1
8 5 4 6 2 4 2 6 4 0 1 6 8 8 10 10 11 6 3 2 2 4 7 8 7 7 8 8 10 10 10 15 7 5 6 7 9 9 8 8 8 8 9 10 10 11 12 11 9 11 9 8 8 8 8 8 7 6 5 7 7 6 6 6 6 5 4 5 6 5 6 5 5 5 8 7 7 6 5 4 5 4 3 3 3 4 2 1 1 2 1 1 1 2 1 0 1
11 8 5 4 2 4 3 5 2 2 2 4 1 3 12 13 13 8 2 2 7 9 9 9 10 10 8 10 12 12 13 7 6 3 5 7 8 8 8 8 8 10 10 10 12 12 11 11 12 11 9 9 9 10 8 8 8 7 7 6 5 6 6 7 7 6 7 6 6 6 6 6 7 6 5 4 4 5 5 5 4 3 3 4 4 2 2 2 3 2 2 2 2 0 1 2 3
7 8 5 2 2 3 8 4 2 3 0 9 5 6 10 12 13 9 7 9 7 8 11 10 11 10 10 10 12 11 7 13 8 9 6 7 8 8 8 9 10 13 12 13 12 11 11 11 11 10 10 10 10 10 9 9 8 8 8 7 9 6 6 7 8 8 9 7 7 7 7 7 5 3 4 6 6 6 7 6 5 4 3 3 2 3 3 3 3 3 3 2 2 2 0 2 3
6 7 7 7 2 2 4 1 4 1 2 4 3 5 9 11 8 11 9 9 8 7 9 10 7 10 12 14 12 10 12 13 13 11 11 10 9 8 8 9 11 11 11 10 10 12 11 11 11 11 10 10 10 10 10 9 10 9 8 6 7 6 5 5 5 3 5 6 6 5 5 5 7 7 7 6 6 6 5 5 3 3 4 4 4 3 3 3 2 2 3 2 4 3 2 2 3
1 8 5 5 4 3 5 4 7 5 2 2 6 8 10 11 12 8 6 8 6 4 4 6 8 9 6 2 4 11 14 13 13 11 10 9 10 12 13 13 10 11 11 12 12 13 11 14 13 13 11 11 10 10 10 9 7 6 4 3 3 3 2 4 4 4 6 7 6 5 7 6 6 6 6 5 5 5 4 4 4 4 4 4 4 4 3 3 3 3 5 5 4 3 3 2 3
2 2 4 6 7 5 2 3 6 6 5 1 1 5 8 2 7 10 7 1 5 5 7 10 11 9 5 8 12 10 10 10 13 13 13 12 11 9 9 10 11 11 11 13 13 13 13 12 12 12 10 10 11 11 11 9 9 9 8 8 7 6 6 5 9 8 6 5 7 6 6 7 7 5 3 4 4 4 4 5 5 5 5 4 4 4 4 4 4 4 4 5 5 2 3 3 2
5 6 9 6 6 3 1 6 2 3 2 1 2 8 9 5 8 5 6 5 10 3 3 10 8 8 7 11 12 11 13 12 10 10 8 7 10 9 11 12 13 13 15 12 12 12 13 12 12 13 12 11 11 11 12 10 10 10 12 11 10 9 9 7 6 7 8 7 5 6 5 4 4 4 3 4 4 4 4 4 4 4 4 4 4 6 6 5 4 4 3 4 4 4 4 3 3
5 4 15 12 9 9 6 1 2 5 3 8 3 4 6 9 12 2 1 2 7 8 7 10 9 9 10 12 13 12 12 12 12 13 13 11 10 12 15 15 13 16 13 10 11 10 13 14 13 13 11 11 11 11 12 12 12 11 12 12 10 10 11 10 9 8 7 7 6 5 3 2 3 4 4 3 6 7 7 6 6 5 5 5 5 4 5 5 4 3 3 5 4 3 3 3 4
3 3 10 12 14 9 5 5 3 3 3 8 5 1 2 8 6 2 0 6 6 10 8 9 11 12 12 13 13 13 14 13 12 12 13 14 14 14 13 12 14 12 11 11 11 12 12 12 12 11 12 11 11 13 13 13 13 13 12 11 11 10 10 8 6 5 6 6 7 5 4 3 3 4 5 6 5 5 5 6 6 5 5 5 4 5 4 4 4 4 3 2 3 3 2 3 3
1 5 4 5 7 4 6 3 2 1 1 12 9 5 5 12 4 3 2 2 8 8 8 10 12 12 12 13 12 12 10 7 8 12 12 11 11 12 11 7 5 11 9 8 7 7 8 8 11 12 12 11 11 12 13 14 14 12 12 12 13 11 8 5 6 7 6 6 8 7 5 5 4 5 5 4 5 4 5 5 5 6 5 4 4 5 5 4 3 4 4 4 5 5 4 4 4
6 7 9 6 5 4 3 4 2 1 4 14 2 6 5 9 6 10 8 8 7 8 6 6 7 6 10 11 12 12 11 9 9 10 9 10 6 7 6 11 10 5 7 7 8 9 8 9 11 12 13 10 11 12 13 14 13 12 12 13 14 13 11 10 8 8 6 6 7 6 7 6 6 7 5 4 3 5 4 4 5 5 5 5 5 5 4 5 5 5 5 7 6 6 5 6 6
8 3 6 8 4 5 5 2 1 2 12 1 7 0 4 10 3 6 6 3 6 9 9 11 11 11 10 10 10 9 6 6 6 7 11 10 7 8 6 10 9 9 6 9 8 8 9 10 10 12 10 11 10 12 13 13 12 13 13 13 14 13 13 11 13 12 10 10 8 8 6 7 5 5 4 4 4 5 4 5 5 6 5 5 5 5 5 6 6 6 5 5 6 6 6 6 6
6 8 7 8 1 2 2 1 4 9 6 1 2 3 1 18 12 5 5 9 9 9 9 11 13 13 11 7 7 7 5 5 7 8 8 6 10 11 11 11 8 9 11 11 12 11 10 10 12 13 13 11 12 12 13 13 13 13 13 13 13 11 12 12 13 11 11 10 9 8 8 8 7 5 5 5 6 7 6 6 5 5 4 5 6 7 6 6 6 6 7 7 6 6 5 6 6
8 9 8 6 4 3 6 3 2 5 5 5 2 2 8 6 4 15 14 12 12 11 12 11 8 9 9 7 4 5 6 6 7 7 7 9 9 9 8 8 10 10 11 11 11 11 10 10 12 13 13 12 11 12 13 13 14 13 13 12 12 10 12 12 11 11 10 9 9 11 10 10 9 10 8 7 6 6 6 6 6 6 5 6 6 6 6 6 7 7 7 7 7 6 7 8 8
11 5 13 12 11 7 9 8 12 10 7 1 4 3 9 5 4 2 13 7 5 5 7 7 7 9 10 5 5 8 9 9 7 8 9 9 9 8 8 9 9 9 10 9 9 9 9 10 10 12 11 11 11 12 12 13 12 12 12 12 11 10 11 11 10 9 10 10 9 11 10 10 10 9 8 6 7 6 7 6 5 6 6 6 7 7 5 6 7 7 7 8 6 5 6 7 7
1 2 4 3 9 2 4 4 3 1 1 1 2 9 3 5 3 7 5 7 9 8 9 5 10 10 7 7 9 10 9 8 6 7 8 9 8 7 7 8 8 7 7 7 8 8 10 11 11 12 12 11 11 11 11 12 12 11 11 12 11 11 9 9 8 8 9 10 11 11 9 9 8 8 6 7 6 7 7 7 6 6 6 7 7 7 7 6 6 7 7 6 7 4 6 7 6
6 4 8 4 1 6 4 2 3 3 4 10 3 8 9 6 10 14 6 4 9 5 7 7 12 12 4 8 10 9 9 6 5 7 8 7 5 6 7 6 6 6 6 8 8 7 9 8 8 9 8 7 9 10 10 10 10 10 11 11 11 10 11 11 10 10 10 8 9 9 9 7 8 7 7 5 7 7 9 8 7 7 6 6 6 6 6 6 6 6 5 6 6 5 5 6 4
8 7 10 3 1 2 3 4 1 1 6 7 3 14 5 1 12 3 6 6 9 6 8 10 10 7 7 11 11 9 5 5 6 7 6 6 6 6 5 4 6 7 7 6 6 5 5 5 6 8 7 8 8 9 9 9 10 11 10 11 11 12 11 11 10 10 9 9 6 6 8 8 7 7 7 7 8 9 9 7 8 7 6 7 7 7 8 7 7 5 5 5 5 5 7 5 4
11 7 9 11 6 6 4 3 4 4 5 5 5 4 5 10 10 3 2 8 11 12 9 7 9 9 12 13 10 4 4 6 8 8 7 6 6 5 5 5 4 5 5 5 5 6 5 5 6 6 8 7 7 7 7 6 8 8 9 10 11 10 9 9 9 10 9 10 10 8 9 8 8 8 8 8 9 9 9 7 8 8 7 8 8 8 8 8 7 6 5 6 5 5 7 7 4
2 3 9 0 2 3 7 7 1 4 6 1 7 3 9 7 6 5 4 7 10 10 7 7 10 11 6 5 6 6 6 7 6 5 5 5 5 5 6 6 6 6 6 6 6 5 6 5 6 6 4 5 5 6 7 8 8 7 8 7 7 8 9 9 9 10 9 10 10 10 10 10 10 8 7 9 9 10 10 9 7 8 8 8 8 7 7 8 7 6 6 6 5 6 8 7 5
5 6 8 4 1 2 4 1 4 5 4 4 2 5 7 7 8 9 10 10 10 10 11 9 7 4 5 6 6 6 6 6 6 5 5 5 5 5 5 5 5 5 4 5 6 5 5 5 6 6 7 7 7 6 6 6 6 6 7 9 8 7 8 7 9 10 11 10 10 10 10 10 9 9 9 9 10 10 10 9 9 8 9 9 9 8 6 7 7 7 5 6 6 7 8 6 5
9 12 14 16 12 6 10 10 2 3 3 5 3 12 5 8 3 8 11 11 11 5 4 7 4 4 6 6 5 6 7 6 6 5 4 5 4 4 3 3 3 4 5 6 5 5 6 6 6 6 6 6 6 7 7 7 6 6 7 7 8 6 8 8 9 9 9 9 9 11 10 8 10 9 10 11 11 9 9 9 9 9 8 8 8 8 7 7 8 8 7 4 6 7 8 6 5
Wind_Direction
25 44 74 111 74 101 21 0 166 328 53 215 310 47 161 21 243 93 196 330 164 247 202 86 110 142 184 215 174 124 35 145 191 144 203 230 48 114 124 112 116 121 124 113 294 62 98 85 95 103 114 120 119 117 115 115 117 114 109 104 102 107 104 99 96 98 98 93 89 91 95 91 84 82 77 75 79 79 79 82 83 88 89 89 86 80 76 74 73 74 75 76 77 79 78 77 76
59 46 57 354 61 59 223 132 95 339 45 47 229 79 257 287 73 207 171 197 199 151 162 111 98 97 75 76 115 141 54 21 180 221 9 176 114 107 115 122 135 131 130 136 121 107 83 107 112 118 121 125 125 124 121 119 116 113 113 108 102 105 101 99 100 96 92 93 96 91 88 90 90 82 80 85 81 81 82 81 83 82 87 87 84 80 76 73 73 72 76 77 79 80 82 81 80
76 43 86 28 40 69 96 27 296 43 69 14 276 211 356 172 201 204 202 194 153 139 117 98 124 81 35 42 85 36 168 343 202 247 130 139 140 179 131 124 128 132 131 142 121 103 80 101 118 125 128 129 125 125 123 118 116 118 112 103 100 92 97 101 95 90 86 83 91 92 81 83 79 81 91 86 80 80 78 80 80 83 86 89 86 82 77 73 73 72 75 80 83 86 87 85 82
100 27 150 77 264 34 51 27 89 126 106 210 303 271 199 183 222 193 225 167 140 107 237 109 110 259 95 44 158 96 104 156 231 162 142 168 176 143 144 136 129 124 118 121 119 89 94 117 121 124 128 129 125 119 118 120 122 115 108 106 99 98 105 106 103 95 98 107 90 85 84 85 85 81 77 81 80 81 82 83 83 84 87 88 86 81 80 77 74 76 75 76 80 91 90 87 84
84 29 77 94 107 337 100 105 131 99 23 189 357 263 234 202 192 189 154 173 162 92 58 158 85 347 250 108 132 184 191 96 185 11 147 132 113 140 148 139 137 122 111 96 93 91 99 123 126 127 126 125 123 122 118 117 113 108 107 108 103 101 104 104 97 102 105 93 89 89 87 83 87 90 86 82 81 85 85 81 83 86 88 87 88 84 81 81 78 74 73 77 77 80 84 84 84
71 55 1 91 332 152 67 75 56 153 211 150 193 248 229 207 174 181 142 159 230 230 193 106 160 186 96 323 193 136 169 154 158 123 156 151 143 148 148 145 131 116 102 87 81 94 93 114 129 126 124 125 125 121 120 114 114 104 108 107 103 99 92 92 100 107 102 99 92 91 88 91 87 78 81 84 86 81 74 75 81 80 76 83 87 88 83 79 77 77 73 73 76 74 77 82 81
173 51 1 29 44 49 179 129 223 194 275 163 216 250 229 216 200 137 134 132 271 79 120 194 143 109 87 288 30 263 123 223 163 160 136 146 138 144 147 150 140 126 113 90 83 90 97 112 118 122 130 128 125 123 116 114 108 108 105 105 106 104 97 96 97 99 98 98 101 95 92 89 88 85 83 79 80 80 81 81 79 79 78 73 80 82 82 77 77 79 80 79 79 79 78 78 78
65 129 312 109 267 40 51 160 224 175 306 172 241 248 250 208 169 156 162 126 211 183 115 239 10 99 241 74 169 220 7 304 39 114 126 144 144 132 152 154 142 133 120 87 75 59 99 113 103 110 120 125 126 119 118 110 109 108 107 107 105 107 109 110 112 104 101 101 101 96 91 93 87 85 82 81 81 80 79 77 74 76 78 80 80 86 87 78 75 80 80 80 81 80 81 80 78
10 84 276 73 71 30 70 197 273 253 288 284 271 220 288 166 163 136 156 245 24 103 136 169 272 129 220 84 177 302 329 357 137 123 144 149 147 139 151 158 150 138 125 104 79 52 87 102 95 104 116 123 123 124 118 113 111 111 111 109 110 118 122 107 97 95 91 93 96 101 100 95 94 92 85 79 75 73 75 75 75 77 79 80 78 71 78 77 73 76 79 78 78 81 83 83 78
45 46 271 127 124 234 7 294 89 174 231 228 244 245 170 161 135 110 145 95 200 128 178 40 145 93 115 147 317 18 73 161 137 133 152 156 149 142 148 154 154 140 126 116 77 68 74 97 100 104 107 115 122 122 116 115 114 112 108 110 115 109 95 95 108 107 104 101 107 106 106 104 101 97 91 84 82 80 79 84 87 83 81 80 84 86 80 75 74 76 76 78 78 75 75 75 73
342 20 126 85 29 81 220 256 259 308 259 313 276 237 206 137 126 117 72 147 60 145 194 175 25 124 111 242 255 279 281 180 146 152 156 156 153 143 141 149 150 141 131 116 91 69 67 80 101 100 99 110 118 101 106 121 118 111 107 101 93 99 100 99 98 98 112 101 91 98 107 103 97 97 95 91 89 84 86 86 81 83 81 80 81 82 85 80 72 74 79 79 80 77 75 74 73
352 24 12 94 174 166 233 180 278 282 295 326 155 225 200 144 119 134 158 143 192 148 179 160 222 144 82 89 275 328 206 164 160 154 157 152 142 138 140 147 148 142 124 115 99 80 66 64 82 97 94 97 108 110 102 102 109 109 107 105 101 103 101 88 76 65 97 95 95 104 108 102 103 102 101 98 94 92 88 77 81 78 78 78 80 80 78 78 75 74 76 78 79 79 77 74 72
110 103 83 92 204 192 181 179 261 301 328 276 167 199 138 128 181 175 152 82 124 116 274 206 132 90 145 196 306 298 204 169 161 156 153 153 135 137 145 146 150 143 119 116 107 92 80 70 67 73 95 95 98 107 106 103 103 104 103 104 103 99 108 91 87 90 92 93 94 92 91 98 102 105 101 95 89 86 81 77 81 81 79 78 80 82 79 78 78 77 73 73 72 72 70 67 65
116 185 131 185 41 102 148 249 328 13 298 244 280 140 176 132 229 166 130 139 204 172 257 169 138 133 96 358 270 214 192 169 155 151 151 142 129 138 146 147 146 143 127 124 117 110 95 93 95 102 93 90 93 95 100 105 104 102 104 101 98 96 97 96 95 98 93 91 92 87 88 86 93 96 93 93 89 78 71 69 69 72 76 78 77 76 79 77 73 72 69 65 63 59 58 56 53
114 166 86 112 47 75 242 94 304 133 268 169 160 143 181 316 107 135 168 163 238 195 0 169 168 133 218 161 242 208 183 170 149 143 144 126 132 140 143 147 148 146 134 131 120 111 113 109 102 105 92 96 93 89 93 104 104 101 101 105 103 101 93 100 103 99 96 93 88 86 86 87 84 86 88 84 81 80 75 66 69 75 81 80 78 76 75 76 73 67 64 64 59 55 51 50 46
141 91 80 111 334 138 229 163 209 85 267 170 52 301 128 14 172 125 244 160 169 93 166 183 41 216 169 171 264 187 159 158 141 138 131 127 134 138 142 147 149 154 144 145 140 125 121 116 117 112 109 102 98 96 98 99 104 105 107 105 105 103 98 89 91 91 88 93 95 95 92 93 89 84 84 81 74 71 72 73 73 77 76 75 72 70 68 68 67 65 66 64 58 52 47 45 40
68 79 60 38 181 169 228 182 161 248 260 265 291 184 165 201 214 248 341 48 128 175 120 215 196 45 176 210 301 212 146 143 140 143 131 134 142 140 146 148 151 162 169 163 156 140 136 130 130 126 123 121 118 118 116 110 104 106 105 108 103 103 105 98 93 94 93 90 94 95 93 85 89 94 89 92 82 72 53 58 72 76 74 70 72 70 63 61 60 59 61 60 56 52 47 48 43
60 59 110 110 201 141 197 176 194 199 35 208 187 221 140 198 174 186 116 41 62 21 200 304 6 255 240 271 294 177 143 148 155 151 149 143 151 152 156 164 161 168 173 171 171 156 151 150 146 140 138 134 131 127 125 125 122 109 118 103 104 102 103 103 98 103 98 102 96 96 98 96 95 89 88 81 86 78 63 35 40 59 56 51 57 56 48 46 43 48 50 50 51 47 41 32 26
66 143 89 218 185 235 156 212 205 121 312 297 190 189 208 219 142 204 134 272 50 128 260 26 335 295 18 47 127 148 150 151 165 160 158 160 163 166 166 166 173 167 174 179 184 177 167 158 154 152 150 146 134 130 132 133 131 129 126 126 113 107 108 99 107 109 106 107 106 102 101 102 97 87 78 89 87 74 64 39 46 53 57 52 53 56 53 39 39 45 45 50 51 47 45 39 30
261 110 127 267 214 271 228 219 258 206 176 351 150 240 156 256 159 124 210 145 71 205 202 247 230 216 182 147 147 159 156 161 171 166 170 171 168 168 169 173 181 182 183 184 183 184 183 173 166 157 154 152 142 138 139 140 138 142 142 140 132 130 115 95 101 106 118 99 114 100 109 102 97 96 84 75 74 68 59 52 53 55 55 52 34 45 38 37 35 47 44 40 42 28 23 35 18
295 75 155 256 147 359 355 179 262 264 147 352 145 26 195 259 208 163 163 118 246 257 225 187 205 194 171 165 160 170 162 169 174 171 174 178 181 181 183 183 187 185 183 182 187 188 188 187 170 164 157 154 147 140 144 148 151 153 157 151 146 142 131 125 126 117 107 113 105 105 88 93 98 92 88 65 65 71 63 38 45 49 42 39 16 26 18 14 22 19 23 24 31 8 12 24 342
352 205 169 23 344 17 302 322 320 314 280 107 96 131 225 77 55 193 159 188 224 212 230 216 219 162 163 168 170 170 169 174 177 176 180 186 186 185 184 176 170 173 171 188 193 191 191 192 186 171 162 158 156 152 153 147 149 163 171 161 156 151 152 145 142 144 131 124 129 116 105 90 88 89 75 67 64 8 54 40 47 55 61 37 21 12 15 14 26 24 17 16 14 4 12 334 340
313 329 28 131 109 261 272 330 307 199 326 161 166 222 76 173 235 187 188 210 227 217 215 211 191 167 168 154 157 172 175 179 181 184 184 190 189 188 190 186 181 176 178 197 192 194 192 192 194 181 169 161 160 151 152 154 164 166 173 172 168 175 167 163 166 161 152 148 138 141 137 119 99 110 95 79 96 42 83 11 75 65 87 86 8 8 358 21 20 21 4 346 330 327 329 342 330
137 233 6 339 354 297 266 292 311 250 182 235 214 48 191 179 236 144 208 236 166 309 254 220 178 143 147 158 176 176 180 184 186 187 188 195 191 189 187 189 193 187 179 190 197 196 190 192 190 187 187 171 166 160 158 163 168 171 174 164 194 190 181 188 180 178 163 167 166 160 148 131 133 128 144 165 194 139 183 225 225 164 197 237 178 292 343 333 351 352 324 311 325 343 333 332 319
248 280 343 293 345 274 296 291 281 250 243 272 92 205 240 188 198 91 239 231 245 334 54 149 136 141 158 166 178 186 185 186 189 189 187 194 198 192 185 187 187 188 197 197 195 196 196 186 187 188 191 184 172 164 168 168 177 186 188 192 199 188 203 199 192 170 179 170 172 172 158 149 150 158 196 217 199 227 215 214 227 231 196 216 320 333 335 326 325 350 334 315 325 326 329 315 316
117 231 302 302 310 313 310 320 282 236 264 183 152 249 284 248 104 258 246 236 213 135 81 115 134 147 167 179 181 180 185 187 185 187 191 190 194 195 196 192 189 196 205 198 194 201 193 183 185 192 191 189 176 168 171 172 179 189 195 198 200 194 211 206 180 190 186 177 192 197 194 170 185 191 190 203 200 224 225 196 216 230 238 256 289 287 260 255 288 293 291 299 313 311 300 281 287
155 275 276 286 289 326 310 261 281 279 230 188 189 287 282 326 137 266 345 291 126 100 105 131 151 172 180 179 186 188 185 187 188 185 181 194 200 202 201 193 194 203 185 197 199 198 189 185 192 194 195 188 180 180 178 180 180 190 192 194 196 200 205 200 204 198 191 196 202 196 199 195 176 186 188 190 209 198 199 206 214 225 250 202 190 232 216 227 227 256 276 293 304 307 293 282 282
3 316 319 283 316 271 254 306 276 130 278 176 184 240 252 291 85 234 221 17 297 140 145 160 177 180 184 186 186 190 194 191 183 183 192 191 199 200 203 200 197 196 190 194 194 180 177 196 195 194 194 190 188 190 189 189 192 188 188 190 196 200 198 207 206 203 204 206 194 195 198 196 184 181 185 181 194 197 210 215 219 214 244 223 207 225 223 213 230 250 246 261 262 265 283 281 265
333 19 300 300 340 327 325 257 260 164 250 158 172 220 289 170 227 259 222 347 97 136 158 176 191 191 186 186 189 193 197 188 190 197 201 198 190 199 208 202 198 195 201 193 189 176 183 186 198 197 192 191 195 195 194 196 193 190 189 195 198 195 198 203 206 204 207 206 196 199 201 192 186 183 186 183 186 203 206 220 228 232 246 237 236 248 260 262 241 227 232 206 225 232 261 281 305
354 47 75 317 330 309 315 318 6 157 261 162 179 265 255 230 232 187 287 131 106 113 179 200 204 196 189 191 196 198 194 193 202 203 198 197 196 195 206 204 200 198 198 196 185 194 192 184 186 194 194 193 198 198 194 196 200 198 195 197 194 191 195 195 205 195 187 194 198 199 200 195 193 193 173 181 188 191 219 235 250 251 221 210 219 225 231 204 237 242 251 256 279 284 292 302 308
161 221 106 250 347 264 292 70 32 170 167 180 121 234 276 268 268 242 207 180 163 183 198 206 204 203 197 198 198 202 208 207 207 201 201 200 194 191 198 201 201 201 196 196 201 202 194 194 182 198 187 197 194 197 199 202 200 195 192 193 192 189 187 194 187 185 188 187 190 198 199 198 198 193 188 173 184 196 190 200 204 225 189 173 185 195 226 252 246 251 278 277 284 269 258 275 297
59 109 255 16 189 296 309 234 168 197 345 317 141 272 256 274 275 306 295 197 183 207 206 204 210 210 206 199 205 210 214 211 219 211 206 200 191 192 191 198 198 201 202 202 204 203 206 202 191 199 186 198 198 200 200 204 200 201 195 189 190 189 188 194 192 191 185 177 185 187 191 190 187 193 191 196 187 182 177 187 225 192 248 158 202 190 200 221 221 253 261 264 300 290 323 314 33
10 191 301 264 56 280 334 316 280 206 123 340 181 233 321 312 324 344 350 176 195 214 222 208 215 218 213 207 208 214 212 221 225 221 212 203 204 195 194 193 194 200 203 202 202 203 212 206 200 203 193 194 197 200 202 203 200 201 200 196 194 187 195 198 194 185 178 185 186 193 181 181 185 182 187 187 196 181 184 196 201 174 207 204 206 188 222 246 332 303 277 259 262 298 310 308 303
95 15 186 196 262 330 296 305 51 338 127 206 253 231 235 249 255 311 347 152 177 227 237 237 226 226 222 215 211 214 212 215 221 215 216 206 203 200 197 194 192 195 202 202 204 205 208 205 201 203 202 197 198 196 197 199 200 202 204 202 194 197 204 203 192 170 195 196 183 199 183 177 174 185 186 190 206 195 202 223 183 185 176 221 196 216 230 158 210 228 277 145 184 219 273 292 305
177 166 171 248 208 213 255 294 296 3 359 204 226 232 257 266 276 240 219 178 171 232 245 245 239 236 238 231 226 224 221 220 230 219 214 207 202 201 198 194 193 193 198 201 202 204 205 208 205 204 203 199 198 198 202 203 203 206 206 198 197 210 213 208 181 192 200 191 198 194 181 177 185 167 185 189 194 195 204 224 228 213 194 188 198 206 225 175 144 209 252 237 209 251 274 273 298
178 168 189 148 191 236 188 261 294 321 267 257 216 217 246 252 260 255 149 171 186 227 239 256 249 248 246 238 238 232 227 234 237 222 208 203 204 198 201 197 198 195 193 193 201 200 203 201 202 207 207 199 195 195 191 196 194 193 191 183 202 210 214 201 199 204 187 197 201 186 185 178 199 173 172 184 195 197 199 208 229 218 185 175 195 232 249 231 202 213 245 258 307 283 187 243 260
135 119 140 187 174 276 268 262 260 93 297 242 230 240 253 257 253 258 182 116 226 250 243 240 245 236 231 235 233 234 231 233 236 212 198 200 201 200 200 194 199 199 198 196 198 203 202 200 191 207 203 197 191 189 190 187 186 189 203 201 203 203 205 202 201 199 191 197 194 192 190 186 213 195 176 171 192 194 204 219 227 215 163 180 206 233 241 219 204 209 198 146 232 281 335 218 27
137 132 154 189 131 313 284 276 298 354 174 295 350 274 262 263 270 254 156 137 239 217 228 236 236 229 231 227 235 230 235 269 270 267 217 206 205 201 195 198 193 197 211 198 202 204 199 198 201 204 193 198 199 196 191 192 192 191 184 188 184 197 201 201 207 207 198 192 193 191 193 197 189 191 179 173 186 188 206 221 228 218 177 200 209 206 218 214 195 193 185 185 182 251 331 23 357
140 149 136 122 287 241 281 292 338 328 194 253 277 263 265 262 256 256 181 216 235 215 209 221 209 222 228 230 234 239 241 246 244 238 227 221 215 207 199 204 206 211 207 202 204 198 201 203 206 197 197 197 203 199 194 200 195 192 191 190 189 197 211 201 197 194 188 187 189 193 193 190 186 212 174 182 192 199 210 213 217 204 191 171 213 234 217 224 215 215 181 186 128 104 82 40 41
134 117 150 197 145 84 298 291 28 347 159 290 352 321 279 275 256 257 226 211 233 220 218 233 198 213 218 222 220 221 230 240 241 230 226 217 212 212 208 209 211 211 212 205 202 204 204 207 203 198 198 198 200 199 199 200 194 195 199 192 200 181 179 191 201 216 194 166 186 187 196 195 184 182 187 192 203 206 203 211 199 177 181 189 210 227 225 221 182 162 151 165 133 116 114 93 64
167 166 163 139 166 174 172 287 327 288 283 161 303 290 280 253 267 270 249 229 259 271 243 258 255 240 246 292 239 218 225 226 236 234 232 214 208 209 205 210 208 212 210 208 203 204 204 206 204 199 197 197 196 192 195 186 167 151 125 79 126 116 80 158 167 191 197 184 163 178 204 199 220 200 181 188 184 203 192 194 195 199 197 200 194 196 166 151 133 140 148 144 156 135 134 134 54
148 263 184 169 148 170 255 302 0 346 328 321 159 322 266 293 255 239 250 68 229 241 220 242 236 239 221 234 235 232 237 231 228 228 225 216 214 211 212 213 212 214 214 214 208 206 204 205 201 199 198 195 195 192 187 178 180 175 168 169 170 190 194 173 187 186 177 187 182 184 192 188 190 202 188 174 183 190 199 202 206 195 190 177 162 133 116 116 131 142 152 144 136 121 122 136 126
156 223 162 158 171 153 191 274 23 278 215 257 88 228 270 333 275 243 246 234 246 273 215 247 249 245 219 227 232 227 226 233 236 247 244 221 215 206 212 209 209 210 217 210 207 206 204 206 201 196 195 196 193 189 181 180 186 187 187 191 191 192 199 203 191 184 182 194 184 180 183 164 170 178 181 182 153 143 150 151 131 126 124 115 119 127 128 140 139 133 137 116 123 140 145 128 144
212 190 167 173 172 173 192 205 179 255 290 284 176 186 257 279 266 209 221 224 259 270 262 261 250 245 232 232 231 228 226 225 222 225 230 225 217 208 214 210 204 212 212 207 208 200 203 206 200 197 196 195 192 184 181 184 188 191 196 200 200 201 201 195 185 189 188 166 162 152 126 96 111 140 145 150 148 144 139 128 122 121 113 113 124 132 135 134 125 121 130 125 127 141 139 127 139
215 174 170 182 183 180 141 148 198 213 339 276 262 72 254 240 265 325 61 254 258 258 254 253 245 240 236 238 237 233 229 223 216 223 226 219 216 217 218 211 213 210 205 204 202 202 205 204 200 196 198 195 191 183 183 188 190 190 194 196 202 206 203 198 176 144 172 166 155 126 126 122 119 118 147 145 128 115 121 126 123 121 121 130 132 127 125 135 137 139 142 129 122 104 74 110 118
307 140 82 85 72 69 136 112 135 305 166 257 231 177 230 267 255 278 339 227 242 245 248 247 238 233 232 236 244 241 242 234 225 228 233 228 221 222 219 231 217 213 207 204 203 201 203 197 200 196 202 195 189 186 186 190 192 188 193 197 201 200 193 157 152 167 174 175 164 162 148 152 143 130 123 114 123 123 119 118 122 124 132 134 128 127 126 118 120 106 103 112 111 106 67 74 101
145 114 97 65 55 82 49 79 104 35 264 260 155 215 196 290 199 203 197 218 185 231 257 270 273 259 249 239 234 234 232 227 229 234 241 243 236 231 210 216 219 207 204 195 198 197 192 195 198 201 204 194 189 189 188 192 192 191 195 195 198 195 189 168 158 165 156 170 165 156 159 160 156 151 128 104 61 100 105 112 122 126 126 126 127 129 133 130 120 113 108 95 87 102 100 101 87
140 118 124 96 17 23 40 345 46 161 250 339 334 145 151 235 305 235 219 252 214 196 214 231 242 243 237 233 233 243 245 242 239 234 240 235 243 241 214 226 212 207 192 199 198 191 193 195 192 201 203 197 192 191 190 193 191 195 198 196 197 194 185 178 171 171 173 170 168 165 160 140 138 145 138 138 144 139 138 129 131 118 125 138 134 133 130 126 120 112 104 98 97 90 101 104 104
98 103 107 134 264 50 301 37 238 215 232 313 331 177 84 241 230 276 272 240 238 225 221 214 220 237 241 241 238 239 245 255 248 244 246 237 227 225 216 220 200 203 202 195 195 193 193 191 192 196 203 195 194 190 192 192 193 196 196 197 200 191 187 186 188 185 179 175 167 155 156 154 148 156 172 162 164 161 155 125 116 122 127 136 137 135 131 122 115 108 107 101 101 106 108 111 108
121 139 136 112 118 148 220 195 338 327 272 238 166 155 254 290 302 222 239 247 229 226 223 234 241 244 248 242 239 252 247 234 242 243 241 237 233 233 228 219 212 207 203 198 194 189 190 192 194 197 204 191 192 192 193 194 197 196 196 197 196 185 190 189 191 185 182 177 168 165 169 165 167 174 173 181 167 165 105 116 125 119 127 135 134 128 121 115 113 113 112 110 107 106 110 110 111
186 161 173 182 169 168 197 177 201 216 213 201 274 90 234 159 249 249 222 252 281 255 244 242 248 251 257 281 280 268 262 251 233 239 237 235 233 222 220 216 218 216 203 198 192 192 183 194 191 199 200 193 192 195 193 197 197 196 197 199 195 187 188 190 191 185 177 174 174 169 173 166 168 168 172 155 164 124 119 129 126 128 137 136 130 123 113 109 112 111 109 111 108 113 115 113 110
27 172 42 113 214 99 153 198 206 246 230 298 200 214 193 191 259 288 242 276 282 266 255 240 258 250 251 269 257 251 244 247 225 235 243 240 230 218 215 217 217 215 213 194 195 184 183 194 194 198 199 189 191 192 196 195 197 196 196 196 196 190 188 187 185 181 180 175 172 171 173 173 157 144 137 152 148 123 130 124 124 131 137 135 130 122 121 114 116 111 116 117 114 119 115 106 110
185 106 213 194 113 95 100 50 46 67 51 252 153 297 269 305 294 268 268 282 265 271 257 236 247 249 235 255 257 251 246 248 242 237 239 238 231 225 211 203 189 206 207 205 201 193 194 189 192 196 197 184 191 195 195 196 195 194 197 196 193 189 186 187 184 180 177 174 170 169 161 153 135 132 145 152 132 119 109 113 127 133 126 125 121 117 109 106 104 107 115 121 118 123 107 103 114
100 194 205 106 62 87 139 199 34 137 203 259 110 234 274 47 275 316 271 248 270 272 250 236 240 249 251 250 250 253 260 253 250 251 242 228 215 207 198 205 205 204 204 202 198 191 193 189 188 190 187 183 186 195 198 196 193 195 195 196 194 191 189 187 178 172 163 155 144 141 133 137 150 142 141 139 120 116 102 121 113 119 125 122 118 109 107 106 108 100 112 110 123 127 108 103 97
171 191 151 146 187 213 222 91 216 188 231 266 275 249 256 211 238 349 248 223 237 243 242 241 244 237 236 244 255 274 244 243 243 237 232 228 212 205 195 207 200 207 207 199 180 173 180 191 194 198 198 198 191 197 203 205 199 197 197 195 192 189 187 180 173 160 156 154 153 156 151 140 129 136 133 131 125 118 120 125 123 124 129 120 109 109 109 109 119 120 128 125 130 125 107 98 90
35 106 180 141 78 283 143 203 170 108 247 71 285 40 247 193 224 202 247 231 242 258 278 259 244 241 255 273 266 260 255 250 258 254 235 224 213 198 191 186 186 195 193 185 171 167 181 191 193 201 200 191 190 201 207 208 201 195 193 189 190 183 177 170 163 157 158 160 156 152 142 143 148 140 139 136 132 134 128 134 135 135 129 122 115 111 114 119 119 119 133 126 134 123 104 103 103
166 161 182 217 119 259 115 193 158 173 182 185 243 295 265 249 212 187 216 223 228 224 246 253 249 279 259 255 270 273 261 257 253 237 220 209 219 210 198 195 189 187 192 166 162 171 180 180 200 192 196 196 202 204 201 211 189 194 180 181 174 167 164 157 156 164 158 155 154 147 150 149 140 144 140 136 136 139 138 138 140 143 137 133 129 125 128 129 124 121 116 119 125 115 109 111 110
171 171 186 186 165 144 173 231 80 157 128 232 139 256 260 269 178 208 211 220 222 246 268 270 313 296 269 266 258 250 266 253 242 227 212 202 209 218 193 159 172 173 186 168 164 168 177 184 193 187 189 198 194 194 199 192 191 179 179 167 162 157 152 152 155 154 149 147 154 151 141 143 146 145 145 141 136 135 136 140 143 138 130 125 121 124 137 142 130 122 114 120 120 115 109 109 102